Regional Weather Roundup
Issued by NWS Upton, NY

Current Version | Previous Version | Text Only | Print | Product List | Glossary On
Versions: 1 2 3 4 5 6 7 8 9 10 11 12 13 14 15 16 17 18 19 20 21 22 23 24 25 26 27 28 29 30 31 32 33 34 35 36 37 38 39 40 41 42 43 44 45 46 47 48 49 50
444 ASUS41 KOKX 191908 RWROKX Regional Weather Roundup National Weather Service New York NY 200 PM EST FRI JAN 19 2018 Note: "FAIR" indicates few or no clouds below 12,000 feet with no significant weather and/or obstructions to visibility. NYZ071-072-176-178-NJZ106-104-192000- New York City Metro Area CITY SKY/WX TMP DP RH WIND PRES REMARKS Central Park FAIR 35 15 44 VRB5 30.01F WCI 31 Bronx Bot Gard N/A 36 16 44 W8 29.98F WCI 29 Bronx Lehman C N/A 36 16 44 W6 N/A WCI 31 LaGuardia Arpt PTSUNNY 36 14 40 W9 29.99F WCI 29 Queens College N/A 34 16 47 W12 N/A WCI 25 Kennedy Intl PTSUNNY 35 16 45 W15 30.01F WCI 25 Breezy Point N/A 36 N/A N/A W9G16 N/A WCI 29 Brooklyn Coll N/A 36 16 44 W12 N/A WCI 27 Staten Island N/A 36 18 48 W9 N/A WCI 29 Newark/Liberty PTSUNNY 38 14 37 W15G22 30.00F WCI 29 Teterboro FAIR 35 16 45 W8 29.99F WCI 29 $$ NYZ177-179-078>081-192000- Long Island New York CITY SKY/WX TMP DP RH WIND PRES REMARKS Jones Beach N/A 34 N/A N/A W14G21 N/A WCI 24 Wantagh N/A 36 18 48 W10 N/A WCI 28 Matinecock Pt N/A 34 N/A N/A W13 N/A WCI 25 Farmingdale FAIR 36 16 44 NW10 29.98F WCI 28 MacArthur/ISP PTSUNNY 36 16 44 W14 29.97F WCI 27 Shirley FAIR 36 17 46 W12 29.98F WCI 28 Mt Sinai Harb N/A N/A N/A N/A W7 N/A Westhampton FAIR 36 14 40 W10 29.98F WCI 28 East Hampton FAIR 32 17 53 W7 29.96F WCI 26 Southold N/A 32 19 59 W9 N/A WCI 24 Montauk N/A 34 20 56 W10G17 29.97F WCI 26 $$ NYZ052-065-067-192000- Hudson Valley CITY SKY/WX TMP DP RH WIND PRES REMARKS White Plains FAIR 32 16 51 W8 29.96F WCI 25 Larchmont Harb N/A 32 N/A N/A SW10 N/A WCI 24 Croton On Huds N/A 34 N/A N/A CALM N/A Somers N/A 32 16 51 W3 N/A Brewster N/A 32 16 51 W7 N/A WCI 26 Newburgh MOSUNNY 32 19 59 W7 29.96F WCI 26 Montgomery FAIR 32 17 54 SW8 29.94F WCI 25 Otisville N/A 32 18 55 W5 N/A WCI 27 Warwick N/A 32 18 55 W2 N/A Suffern N/A 34 18 51 SW6 N/A WCI 29 Poughkeepsie FAIR 33 15 47 W7 29.96F WCI 27 Albany CLOUDY 28 17 63 S3 29.96F $$ NJZ001-105-106-008-010-013-015-019>022-104-192000- New Jersey CITY SKY/WX TMP DP RH WIND PRES REMARKS Newark/Liberty PTSUNNY 38 14 37 W15G22 30.00F WCI 29 Teterboro FAIR 35 16 45 W8 29.99F WCI 29 Caldwell FAIR 34 16 47 VRB5 29.99F WCI 30 Somerville FAIR 38 19 46 MISG 29.99F Linden FAIR 37 15 40 W8 30.00F WCI 30 Perth Amboy N/A 36 N/A N/A W16 N/A WCI 26 Sussex FAIR 35 18 49 CALM 29.95F Andover N/A 33 17 51 VRB3 29.96F Trenton FAIR 39 17 41 W9 30.01F WCI 33 Millville FAIR 45 19 35 W9 30.05F Atlantic City FAIR 47 17 30 W14 30.03F Wrightstown FAIR 42 19 39 W13 29.99F Toms River FAIR 44 17 33 W16G23 30.01F Belmar FAIR 40 16 37 W16 30.01F WCI 31 $$ PAZ047>061-062-071-192000- Eastern Pennsylvania CITY SKY/WX TMP DP RH WIND PRES REMARKS Philadelphia PTSUNNY 44 15 31 W15 30.04F Allentown FAIR 36 19 50 SW12 30.00F WCI 28 Scranton FAIR 33 17 51 SW9G20 29.94F WCI 25 $$ CTZ002-004>006-009-010-012-RIZ004-006-007-MAZ004-011-015-192000- Southern New England In CT CITY SKY/WX TMP DP RH WIND PRES REMARKS Bradley Intl PTSUNNY 34 18 52 VRB3 29.94F Hartford FAIR 35 18 49 W6 29.95F WCI 30 Danbury FAIR 32 17 54 W7 29.96F WCI 26 Wtrbury/Oxford FAIR 32 16 51 NW7 29.93F WCI 26 Norwalk Harbor N/A N/A N/A N/A W12 N/A Bridgeport FAIR 34 17 50 W9 29.97F WCI 27 Meriden FAIR 33 16 49 W6 29.95F WCI 28 New Haven FAIR 35 18 49 W6 29.96F WCI 30 Chester FAIR 36 14 41 VRB3 29.93F Groton FAIR 34 20 56 SW13 29.95F WCI 25 Willimantic FAIR 34 17 50 W8 29.94F WCI 27 In RI CITY SKY/WX TMP DP RH WIND PRES REMARKS Providence PTSUNNY 37 19 48 W6 29.93F WCI 32 Block Island FAIR 34 22 61 W17G23 29.95F WCI 23 Westerly FAIR 34 22 61 SW14G21 29.95F WCI 25 In MA CITY SKY/WX TMP DP RH WIND PRES REMARKS Boston CLOUDY 33 19 56 W8 29.92F WCI 26 Worcester FAIR 29 15 56 SW12 29.87F WCI 19 Westfield FAIR 33 19 56 N7 29.92F WCI 27 Provincetown CLOUDY 32 22 66 VRB6 29.93 WCI 26 Nantucket FAIR 33 22 63 W16 29.94S WCI 23 $$ ANZ330-335-338-340-345-350-353-355-192000- Coastal Marine Observations STATION/POSITION TIME SKY/WX TEMP WIND PRES VSBY WAVE AIR SEA DIR/SP/G HT/PER (UTC) (F) (DEG/KT/KT) (MB) (MI) (FT/S) NY Harb Entrance 1750 36 40 290/ 16/ 17 1016.3 2/10 20 S Fire Island 1750 35 42 290/ 17/ 21 1016.4 4/ 4 15 E Barnegat Li 1830 43 N/A 2/10 Hudson Canyon 1750 40 49 290/ 21/ 25 1016.2 5/ 5 Kings Point 1836 34 32 310/ 7/ 11 1016.6 Execution Rocks NOT AVBL Western LI Sound NOT AVBL Central LI Sound 1815 32 260/ 16/ 17 N/A 3 Robbins Reef 1836 35 260/ 14/ 17 1016.5 $$ >>>>>>>>>>>>>>>>>>>>>>>>>>>> KEY <<<<<<<<<<<<<<<<<<<<<<<<<<< > < > SKY/WX - Sky Condition/Present Weather < > TMP - Temperature in Fahrenheit < > DP - Dew Point in Fahrenheit < > RH - Relative Humidity in Percent < > WIND - Direction (from) and Speed in MPH < > PRES - Mean Sea Level Pressure (inches of Hg) < > WCI - Wind Chill Index < > VSB - Visibility in Miles < > HX - Heat Index < > TC - Temperature in Celsius < > VRB - Varibale Wind Direction < > < >>>>>>>>>>>>>>>>>>>>>>>>>>>> KEY <<<<<<<<<<<<<<<<<<<<<<<<<<<

USA.gov is the U.S. government's official web portal to all federal, state and local government web resources and services.